Torna al catalogo

METEOR 2-6 DEB

AttivoPO
NORAD 28986·DEBRIS·🇷🇺 Russia

Lanciato Sep 9, 1980 da Plesetsk Cosmodrome

Loading…

Prossimi Passaggi (prossime 24 ore)

TLE

AggiornatoSource: Space-Track

Epoca: Sep 13, 2026, 11:43 UTC

1 28986U 80073C   26256.48847872  .00004370  00000-0  79103-3 0  9997
2 28986  81.2046 168.7130 0021373  87.1375 273.2272 14.66065314664927

Traccia METEOR 2-6 DEB in tempo reale con AllMySat

Download on the App Store